[Iaude] MPEC L148: 2024 LD5 [a=2.31,e=0.44,i=3.4,H=21.9]
    mpec at cfa.harvard.edu 
    mpec at cfa.harvard.edu
       
    Sat Jun 15 14:49:26 EDT 2024
    
    
  
M.P.E.C. 2024-L148                                Issued 2024 June 15, 18:47 UT
     The Minor Planet Electronic Circulars contain information on unusual
         minor planets, routine data on comets and natural satellites,
         and occasional editorial announcements.  They are published
    on behalf of Division F of the International Astronomical Union by the
          Minor Planet Center, Smithsonian Astrophysical Observatory,
                          Cambridge, MA 02138, U.S.A.
			  
             Prepared using the Tamkin Foundation Computer Network
                              MPC at CFA.HARVARD.EDU
            URL https://www.minorplanetcenter.net/    ISSN 1523-6714
                                    2024 LD5                                    
Observations:
     K24L05D* C2024 06 06.53315220 08 26.654-32 30 08.30         21.87wXEL148F52
     K24L05D  C2024 06 06.54362320 08 28.247-32 30 07.41         21.35wXEL148F52
     K24L05D  C2024 06 06.55408120 08 29.840-32 30 06.81         21.62wXEL148F52
     K24L05D  C2024 06 06.60467520 08 37.520-32 30 03.34         21.32GVEL148F51
     K24L05D  C2024 06 06.60532020 08 37.631-32 30 03.43         21.19GVEL148F51
     K24L05D !C2024 06 07.12946420 10 03.631-32 29 28.72         22.5 GVEL148J04
     K24L05D !C2024 06 07.14594220 10 06.075-32 29 28.73         21.5 GVEL148J04
     K24L05D KC2024 06 07.40215 20 10 47.56 -32 29 09.6          21.6 RVEL148291
     K24L05D KC2024 06 07.40666 20 10 48.25 -32 29 09.6          21.6 RVEL148291
     K24L05D KC2024 06 07.41115 20 10 48.93 -32 29 09.1                VEL148291
     K24L05D 1C2024 06 15.53815220 31 45.610-32 10 08.34         21.22GVEL148T12
     K24L05D 1C2024 06 15.54062220 31 45.940-32 10 07.81         21.18GVEL148T12
     K24L05D 1C2024 06 15.54370220 31 46.343-32 10 07.26         21.15GVEL148T12
Observer details:
291 LPL/Spacewatch II.  Observer R. A. Mastaler.  1.8-m f/2.7 reflector + CCD.
F51 Pan-STARRS 1, Haleakala.  Observers J. Herman, T. Lowe, P. Minguez, A.
    Schultz, I. Smith.  Measurers K. Chambers, T. de Boer, J. Fairlamb, H.
    Gao, M. Huber, C.-C. Lin, E. Magnier, Y. Ramanjooloo, R. Wainscoat, R.
    Weryk.  1.8-m Ritchey-Chretien + CCD.
F52 Pan-STARRS 2, Haleakala.  Observers J. Herman, T. Lowe, P. Minguez, A.
    Schultz, I. Smith.  Measurers K. Chambers, T. de Boer, J. Fairlamb, H.
    Gao, M. Huber, C.-C. Lin, E. Magnier, Y. Ramanjooloo, R. Wainscoat, R.
    Weryk.  1.8-m Ritchey-Chretien + CCD.
J04 ESA Optical Ground Station, Tenerife.  Observers P. Ruiz, M. Micheli, F.
    Ocana, L. Conversi.  Measurers R. Kresken, M. Micheli, F. Ocana, A.
    Knofel, M. Busch, E. Schwab.  1.0-m f/4.4 reflector + CCD.
T12 University of Hawaii 88-inch telescope, Maunakea.  Observer Y.
    Ramanjooloo.  Measurers R. Weryk, Y. Ramanjooloo, J. Fairlamb, R.
    Wainscoat.  2.24-m f/10.1 reflector + CCD.
Orbital elements:
2024 LD5                                                 Earth MOID = 0.2805 AU
Epoch 2024 Mar. 31.0 TT = JDT 2460400.5                 Bell                    
M 333.77254              (2000.0)            P               Q                  
n   0.28099839     Peri.  290.43033     +0.29541457     +0.95536319             
a   2.3085192      Node   356.74641     -0.85285220     +0.26211962             
e   0.4413293      Incl.    3.41231     -0.43055005     +0.13628825             
P   3.51           H   21.99          G   0.15           U   9                  
Residuals in seconds of arc
240606 F52  0.1-  0.2-    240607 J04  0.6+  0.4+    240615 T12  0.1+  0.0
240606 F52  0.1-  0.1+    240607 J04  0.1-  0.5-    240615 T12  0.0   0.0
240606 F52  0.0   0.1+    240607 291  0.2-  0.2+    240615 T12  0.1-  0.0
240606 F51  0.0   0.0     240607 291  0.1-  0.1-
240606 F51  0.1+  0.1-    240607 291  0.1-  0.1+
Ephemeris:
2024 LD5                 a,e,i = 2.31, 0.44, 3                   q = 1.2897
Date    TT    R. A. (2000) Decl.     Delta      r    Elong.  Phase     V
2024 05 16    19 07 05.2 -31 58 46   0.4821  1.3728   130.3    34.2    22.5
...
2024 05 31    19 50 17.4 -32 31 26   0.4025  1.3297   135.1    32.6    22.0
...
2024 06 08    20 12 23.4 -32 28 00   0.3698  1.3126   137.8    31.3    21.8
...
2024 06 14    20 27 56.9 -32 14 44   0.3497  1.3028   139.9    30.1    21.6
2024 06 15    20 30 26.0 -32 11 36   0.3467  1.3014   140.3    29.9    21.6
2024 06 16    20 32 52.9 -32 08 12   0.3438  1.3001   140.7    29.7    21.5
...
2024 06 22    20 46 45.3 -31 42 19   0.3284  1.2939   143.1    28.2    21.4
...
2024 06 30    21 02 38.6 -30 53 55   0.3132  1.2899   146.7    25.6    21.2
...
2024 07 15    21 22 41.8 -28 46 30   0.3010  1.2960   155.3    19.2    20.9
M. P. C. Staff               (C) Copyright 2024 MPC           M.P.E.C. 2024-L148
    
    
More information about the Iaude
mailing list